Flag for United Kingdom Weather past 2 weeks in Slough, England, United Kingdom

Now
63 °F

Passing clouds.


Feels Like: 63 °F
Forecast: 47 / 63 °F
Wind: 10 mph from Southwest

Location: London City Airport


UV Index: 3 (Moderate)

Visibility: N/A


Pressure: 30.04 "Hg

Humidity: 45%

Dew point: 41 °F

Location of SloughLocation

Historic Weather in Slough

°F

Slough temperature yesterday

Maximum temperature yesterday: 63 °F (at 1:50 PM)
Minimum temperature yesterday: 50 °F (at 3:50 AM)
Average temperature yesterday: 55 °F

Past Weeks' High & Low Weather Summary

 TemperatureHumidityPressure
High66 °F (Apr 21, 1:20 PM)100% (Apr 21, 1:50 AM)30.45 "Hg (Apr 21, 1:50 AM)
Low41 °F (Apr 15, 6:20 AM)27% (Apr 16, 4:20 PM)29.62 "Hg (Apr 20, 2:50 PM)
Average53 °F66%30.09 "Hg
* Reported Apr 8 3:20 PM — Apr 23 3:50 PM, Slough, Weather by CustomWeather, © 2014

Note: Actual official high and low records may vary slightly from our data, if they occured in-between our weather recording intervals... More about our weather records

Advertising

Historic Weather Conditions — Data for Previous 24 hours

 ConditionsComfort  
Time TempWeatherWind HumidityBarometerVisibility
3:50 PM
Apr 23
63 °FPassing clouds.10 mph45%30.04 "HgN/A
3:20 PM63 °FPassing clouds.10 mph45%30.04 "HgN/A
2:50 PM63 °FPassing clouds.12 mph45%30.04 "HgN/A
2:20 PM63 °FPassing clouds.9 mph49%30.04 "HgN/A
1:50 PM63 °FScattered clouds.9 mph49%30.04 "HgN/A
1:20 PM63 °FPassing clouds.10 mph49%30.04 "HgN/A
12:50 PM63 °FPassing clouds.12 mph52%30.04 "HgN/A
12:20 PM63 °FScattered clouds.10 mph52%30.04 "HgN/A
11:50 AM63 °FScattered clouds.10 mph56%30.04 "HgN/A
11:20 AM63 °FScattered clouds.9 mph52%30.07 "HgN/A
10:50 AM61 °FScattered clouds.12 mph59%30.07 "HgN/A
10:20 AM61 °FPassing clouds.10 mph59%30.07 "HgN/A
9:50 AM59 °FPassing clouds.10 mph68%30.07 "HgN/A
9:20 AM59 °FPassing clouds.9 mph63%30.04 "HgN/A
8:50 AM57 °FPassing clouds.5 mph72%30.04 "HgN/A
8:20 AM54 °FPassing clouds.5 mph77%30.04 "HgN/A
7:50 AM52 °FSunny.6 mph82%30.04 "Hg10 mi
7:20 AM50 °FSunny.5 mph88%30.04 "Hg10 mi
6:20 AM48 °FClear.3 mph94%30.01 "Hg10 mi
5:50 AM48 °FClear.5 mph94%30.01 "Hg6 mi
5:20 AM48 °FCool.3 mph94%30.01 "Hg6 mi
4:50 AM48 °FCool.No wind94%30.01 "HgN/A
4:20 AM50 °FCool.3 mph88%30.01 "Hg6 mi
3:50 AM50 °FCool.5 mph88%30.01 "HgN/A
3:20 AM50 °FCool.3 mph88%30.01 "HgN/A
2:50 AM50 °FCool.6 mph88%30.01 "HgN/A
2:20 AM50 °FCool.6 mph88%30.01 "HgN/A
1:50 AM52 °FCool.7 mph88%29.98 "HgN/A
1:20 AM52 °FCool.8 mph88%29.98 "HgN/A
12:50 AM52 °FCool.9 mph88%29.98 "HgN/A
12:20 AM52 °FCool.8 mph88%29.98 "HgN/A
11:50 PM
Apr 22
54 °FCool.7 mph82%29.95 "HgN/A
11:20 PM54 °FCool.7 mph82%29.95 "HgN/A
10:50 PM54 °FCool.6 mph82%29.95 "HgN/A
10:20 PM54 °FCool.8 mph82%29.92 "HgN/A
9:50 PM54 °FCool.10 mph82%29.92 "HgN/A
9:20 PM55 °FCool.10 mph77%29.92 "HgN/A
8:50 PM55 °FPassing clouds.9 mph72%29.92 "HgN/A
8:20 PM55 °FPassing clouds.10 mph72%29.89 "HgN/A
7:50 PM57 °FPassing clouds.9 mph67%29.89 "HgN/A
7:20 PM57 °FPassing clouds.10 mph63%29.86 "HgN/A
6:50 PM59 °FPassing clouds.14 mph59%29.86 "HgN/A
6:20 PM59 °FScattered clouds.12 mph59%29.86 "HgN/A
5:50 PM59 °FScattered clouds.14 mph59%29.83 "HgN/A
5:20 PM61 °FScattered clouds.15 mph55%29.83 "HgN/A
4:50 PM61 °FScattered clouds.13 mph55%29.83 "HgN/A
4:20 PM63 °FScattered clouds.12 mph52%29.80 "HgN/A
Weather by CustomWeather, © 2014

See weather overview